Weather History for PHOG - April, 2013

Change the Weather History Date:

Tuesday, April 30, 2013

  Actual Average Record
Temperature  
Mean Temperature 78 °F 75 °F  
Max Temperature 91 °F 83 °F 92 °F (1953)
Min Temperature 65 °F 66 °F 58 °F (2003)
Degree Days  
Heating Degree Days 0 0  
Month to date heating degree days 0 0  
Since 1 July heating degree days 0 0  
Cooling Degree Days 13 10  
Month to date cooling degree days 317 272  
Year to date cooling degree days 983 926  
Growing Degree Days 27 (Base 50)    
Moisture  
Dew Point 67 °F    
Average Humidity 70    
Maximum Humidity 93    
Minimum Humidity 47    
Precipitation  
Precipitation 0.00 in 0.03 in 1.24 in (1954)
Month to date precipitation 0.07 1.55  
Year to date precipitation 6.20 8.76  
Snow  
Snow 0.00 in - - ()
Month to date snowfall 0.0  
Since 1 July snowfall 0.0  
Snow Depth 0.00 in    
Sea Level Pressure  
Sea Level Pressure 30.00 in    
Wind  
Wind Speed 6 mph (East)    
Max Wind Speed 17 mph    
Max Gust Speed 23 mph    
Visibility 10 miles    
Events      
T = Trace of Precipitation, MM = Missing Value Source: NWS Daily Summary

Daily Weather History Graph

Daily Weather History Graph

Search for Another Location

Airport or City:

Trip Planner

Search our weather history database for the weather conditions in past years. The results will help you decide how hot, cold, wet, or windy it might be!

Date:

Astronomy

Apr. 30, 2013 Rise Set
Actual Time 5:55 AM HST 6:50 PM HST
Civil Twilight 5:32 AM HST 7:13 PM HST
Nautical Twilight 5:05 AM HST 7:40 PM HST
Astronomical Twilight 4:37 AM HST 8:08 PM HST
Moon No Moon Rise 10:43 AM HST (4/30)
Length of Visible Light 13h 40m
Length of Day
12h 54m
Waning Gibbous, 67% of the Moon is Illuminated
Apr 30
Waning Gibbous
May 2
Last Quarter
May 9
New
May 17
First Quarter
May 24
Full

Hourly Weather History & Observations

Time (HST) Temp. Heat Index Dew Point Humidity Pressure Visibility Wind Dir Wind Speed Gust Speed Precip Events Conditions
12:54 AM 70.0 °F - 64.9 °F 84% 30.00 in 10.0 mi South 3.5 mph - N/A   Clear
1:54 AM 68.0 °F - 64.9 °F 90% 29.99 in 10.0 mi SSE 3.5 mph - N/A   Clear
2:54 AM 69.1 °F - 64.9 °F 87% 29.99 in 10.0 mi SE 4.6 mph - N/A   Clear
3:54 AM 68.0 °F - 63.0 °F 84% 29.98 in 10.0 mi South 3.5 mph - N/A   Clear
4:54 AM 66.0 °F - 64.0 °F 93% 29.98 in 10.0 mi Calm Calm - N/A   Clear
5:54 AM 66.9 °F - 63.0 °F 87% 29.99 in 10.0 mi SE 4.6 mph - N/A   Clear
6:54 AM 70.0 °F - 64.9 °F 84% 30.01 in 10.0 mi SSE 3.5 mph - N/A   Clear
7:54 AM 79.0 °F - 68.0 °F 69% 30.01 in 10.0 mi Calm Calm - N/A   Partly Cloudy
8:54 AM 81.0 °F 83.3 °F 66.9 °F 62% 30.03 in 10.0 mi NNE 5.8 mph - N/A   Partly Cloudy
9:54 AM 82.9 °F 87.0 °F 70.0 °F 65% 30.03 in 10.0 mi NNE 10.4 mph - N/A   Partly Cloudy
10:54 AM 86.0 °F 90.7 °F 70.0 °F 59% 30.02 in 10.0 mi NNE 9.2 mph - N/A   Partly Cloudy
11:54 AM 84.9 °F 88.2 °F 68.0 °F 57% 30.01 in 10.0 mi Variable 6.9 mph 17.3 mph N/A   Scattered Clouds
12:54 PM 87.1 °F 91.3 °F 69.1 °F 55% 30.00 in 10.0 mi NE 9.2 mph - N/A   Scattered Clouds
1:54 PM 89.1 °F 92.1 °F 66.9 °F 48% 29.98 in 10.0 mi North 12.7 mph 20.7 mph N/A   Scattered Clouds
2:54 PM 86.0 °F 90.1 °F 69.1 °F 57% 29.98 in 10.0 mi ESE 5.8 mph - N/A   Scattered Clouds
3:54 PM 87.1 °F 89.2 °F 66.0 °F 49% 29.97 in 10.0 mi NNE 15.0 mph - N/A   Scattered Clouds
4:54 PM 87.1 °F 89.2 °F 66.0 °F 49% 29.96 in 10.0 mi NE 11.5 mph - N/A   Scattered Clouds
5:54 PM 82.0 °F 84.5 °F 66.9 °F 60% 29.98 in 10.0 mi NE 10.4 mph - N/A   Partly Cloudy
6:54 PM 78.1 °F - 66.9 °F 68% 29.99 in 10.0 mi NE 10.4 mph - N/A   Partly Cloudy
7:54 PM 75.0 °F - 68.0 °F 79% 30.01 in 10.0 mi East 8.1 mph - N/A   Partly Cloudy
8:54 PM 73.9 °F - 68.0 °F 82% 30.03 in 10.0 mi East 4.6 mph - N/A   Clear
9:54 PM 75.0 °F - 64.0 °F 69% 30.05 in 10.0 mi ENE 3.5 mph - N/A   Clear
10:54 PM 72.0 °F - 66.0 °F 81% 30.06 in 10.0 mi East 3.5 mph - N/A   Clear
11:54 PM 73.0 °F - 66.0 °F 79% 30.04 in 10.0 mi East 3.5 mph - N/A   Clear